Location: Charbonni�res
(45.9952°N, 2.9982°E)
Time: 17:05:11
(UTC+00:00)

USA 305 - Pass Details

Date: 29 November 2020
Orbit: 566 x 578 km, 54.0° (Epoch: 11 January)

Event Time Altitude Azimuth Distance (km) Brightness Sun altitude
Exits shadow 05:40:26 19° 322° (NW) 1,400 4.4 -14.7°
Maximum altitude 05:42:45 31° 12° (NNE) 1,017 4.1 -14.3°
Drops below altitude 10° 05:46:38 10° 76° (ENE) 1,893 6.5 -13.6°
Sets 05:49:06 0° 87° (E) 2,792 7.8 -13.2°
